TimeEDT,TemperatureF,Dew PointF,Humidity,Sea Level PressureIn,VisibilityMPH,Wind Direction,Wind SpeedMPH,Gust SpeedMPH,PrecipitationIn,Events,Conditions,WindDirDegrees,DateUTC
12:15 AM,73.4,71.6,94,30.02,1.5,Calm,Calm,-,N/A,,Overcast,0,2013-07-10 04:15:00
12:35 AM,71.6,71.6,100,30.01,0.8,Calm,Calm,-,N/A,,Overcast,0,2013-07-10 04:35:00
12:55 AM,71.6,71.6,100,30.01,2.0,Calm,Calm,-,N/A,,Overcast,0,2013-07-10 04:55:00
1:15 AM,71.6,71.6,100,30.01,2.0,Calm,Calm,-,N/A,,Overcast,0,2013-07-10 05:15:00
1:35 AM,71.6,71.6,100,29.99,1.5,Calm,Calm,-,N/A,,Scattered Clouds,0,2013-07-10 05:35:00
1:55 AM,71.6,69.8,94,29.98,4.0,Calm,Calm,-,N/A,,Clear,0,2013-07-10 05:55:00
2:15 AM,73.4,71.6,94,29.98,5.0,Calm,Calm,-,N/A,,Clear,0,2013-07-10 06:15:00
2:35 AM,73.4,71.6,94,29.98,5.0,Calm,Calm,-,N/A,,Scattered Clouds,0,2013-07-10 06:35:00
2:55 AM,73.4,71.6,94,29.98,5.0,Calm,Calm,-,N/A,,Mostly Cloudy,0,2013-07-10 06:55:00
3:15 AM,73.4,71.6,94,29.97,5.0,Calm,Calm,-,N/A,,Mostly Cloudy,0,2013-07-10 07:15:00
3:55 AM,73.4,71.6,94,29.96,5.0,Calm,Calm,-,N/A,,Scattered Clouds,0,2013-07-10 07:55:00
4:15 AM,73.4,71.6,94,29.96,5.0,Calm,Calm,-,N/A,,Scattered Clouds,0,2013-07-10 08:15:00
4:35 AM,73.4,71.6,94,29.96,5.0,Calm,Calm,-,N/A,,Mostly Cloudy,0,2013-07-10 08:35:00
4:55 AM,73.4,71.6,94,29.96,5.0,Calm,Calm,-,N/A,,Overcast,0,2013-07-10 08:55:00
5:15 AM,73.4,71.6,94,29.97,5.0,Calm,Calm,-,N/A,,Overcast,0,2013-07-10 09:15:00
5:35 AM,73.4,71.6,94,29.96,5.0,Calm,Calm,-,N/A,,Overcast,0,2013-07-10 09:35:00
5:55 AM,73.4,71.6,94,29.97,4.0,Calm,Calm,-,N/A,,Overcast,0,2013-07-10 09:55:00
6:15 AM,73.4,71.6,94,29.97,4.0,Calm,Calm,-,N/A,,Overcast,0,2013-07-10 10:15:00
6:35 AM,75.2,71.6,89,29.96,5.0,Calm,Calm,-,N/A,,Overcast,0,2013-07-10 10:35:00
6:55 AM,75.2,71.6,89,29.96,5.0,Calm,Calm,-,N/A,,Overcast,0,2013-07-10 10:55:00
7:15 AM,77.0,73.4,89,29.96,5.0,Calm,Calm,-,N/A,,Overcast,0,2013-07-10 11:15:00
7:35 AM,77.0,73.4,89,29.96,5.0,Calm,Calm,-,N/A,,Overcast,0,2013-07-10 11:35:00
7:55 AM,77.0,73.4,89,29.96,5.0,Calm,Calm,-,N/A,,Overcast,0,2013-07-10 11:55:00
8:15 AM,77.0,73.4,89,29.96,5.0,Calm,Calm,-,N/A,,Overcast,0,2013-07-10 12:15:00
8:35 AM,77.0,73.4,89,29.96,5.0,WSW,3.5,-,N/A,,Mostly Cloudy,240,2013-07-10 12:35:00
8:55 AM,78.8,73.4,83,29.96,5.0,Calm,Calm,-,N/A,,Mostly Cloudy,0,2013-07-10 12:55:00
9:15 AM,78.8,71.6,78,29.96,7.0,Calm,Calm,-,N/A,,Scattered Clouds,0,2013-07-10 13:15:00
9:35 AM,78.8,73.4,83,29.96,7.0,Calm,Calm,-,N/A,,Mostly Cloudy,0,2013-07-10 13:35:00
9:55 AM,78.8,73.4,83,29.96,7.0,Calm,Calm,-,N/A,,Scattered Clouds,0,2013-07-10 13:55:00
10:15 AM,80.6,73.4,79,29.96,7.0,SW,4.6,-,N/A,,Scattered Clouds,220,2013-07-10 14:15:00
10:35 AM,80.6,71.6,74,29.96,10.0,Calm,Calm,-,N/A,,Mostly Cloudy,0,2013-07-10 14:35:00
10:55 AM,82.4,71.6,70,29.96,10.0,West,8.1,-,N/A,,Scattered Clouds,260,2013-07-10 14:55:00
11:15 AM,82.4,71.6,70,29.96,7.0,Calm,Calm,-,N/A,,Scattered Clouds,0,2013-07-10 15:15:00
11:35 AM,82.4,69.8,66,29.96,10.0,West,9.2,-,N/A,,Scattered Clouds,260,2013-07-10 15:35:00
11:55 AM,82.4,69.8,66,29.96,10.0,West,9.2,16.1,N/A,,Scattered Clouds,260,2013-07-10 15:55:00
12:15 PM,82.4,69.8,66,29.95,10.0,WSW,6.9,16.1,N/A,,Scattered Clouds,240,2013-07-10 16:15:00
12:35 PM,82.4,69.8,66,29.95,10.0,WSW,3.5,-,N/A,,Scattered Clouds,250,2013-07-10 16:35:00
12:55 PM,78.8,69.8,74,29.95,5.0,West,10.4,19.6,N/A,,Scattered Clouds,260,2013-07-10 16:55:00
1:15 PM,78.8,71.6,78,29.93,7.0,WSW,5.8,-,0.01,,Mostly Cloudy,240,2013-07-10 17:15:00
1:35 PM,80.6,71.6,74,29.93,10.0,WSW,10.4,-,0.01,,Clear,240,2013-07-10 17:35:00
1:55 PM,82.4,71.6,70,29.93,10.0,Calm,Calm,-,0.01,,Scattered Clouds,0,2013-07-10 17:55:00
2:15 PM,82.4,71.6,70,29.92,10.0,Calm,Calm,-,N/A,,Scattered Clouds,0,2013-07-10 18:15:00
2:35 PM,82.4,71.6,70,29.90,10.0,SW,11.5,-,N/A,,Clear,220,2013-07-10 18:35:00
2:55 PM,84.2,71.6,66,29.89,10.0,SW,4.6,-,N/A,,Scattered Clouds,220,2013-07-10 18:55:00
3:15 PM,84.2,69.8,62,29.88,10.0,Calm,Calm,-,N/A,,Scattered Clouds,0,2013-07-10 19:15:00
3:35 PM,86.0,69.8,58,29.88,10.0,Calm,Calm,-,N/A,,Scattered Clouds,0,2013-07-10 19:35:00
3:55 PM,84.2,69.8,62,29.88,10.0,WSW,5.8,-,N/A,,Mostly Cloudy,250,2013-07-10 19:55:00
4:15 PM,86.0,69.8,58,29.87,10.0,WSW,8.1,-,N/A,,Mostly Cloudy,240,2013-07-10 20:15:00
4:35 PM,86.0,69.8,58,29.86,10.0,SW,6.9,17.3,N/A,,Mostly Cloudy,220,2013-07-10 20:35:00
4:55 PM,86.0,71.6,62,29.85,10.0,SW,5.8,16.1,N/A,,Scattered Clouds,220,2013-07-10 20:55:00
5:15 PM,86.0,69.8,58,29.84,10.0,WSW,9.2,-,N/A,,Scattered Clouds,240,2013-07-10 21:15:00
5:35 PM,84.2,69.8,62,29.85,10.0,SW,3.5,-,N/A,,Scattered Clouds,220,2013-07-10 21:35:00
5:55 PM,86.0,69.8,58,29.84,10.0,SW,9.2,16.1,N/A,,Scattered Clouds,230,2013-07-10 21:55:00
6:15 PM,84.2,69.8,62,29.85,10.0,Calm,Calm,-,N/A,,Scattered Clouds,0,2013-07-10 22:15:00
6:35 PM,84.2,71.6,66,29.85,10.0,Calm,Calm,-,N/A,,Scattered Clouds,0,2013-07-10 22:35:00
6:55 PM,84.2,71.6,66,29.85,10.0,Calm,Calm,-,N/A,,Scattered Clouds,0,2013-07-10 22:55:00
7:15 PM,82.4,71.6,70,29.86,10.0,Calm,Calm,-,N/A,,Clear,0,2013-07-10 23:15:00
7:35 PM,82.4,71.6,70,29.86,10.0,SW,8.1,-,N/A,,Clear,220,2013-07-10 23:35:00
7:55 PM,82.4,71.6,70,29.86,10.0,SW,6.9,-,N/A,,Scattered Clouds,230,2013-07-10 23:55:00
8:15 PM,82.4,71.6,70,29.86,10.0,SW,8.1,-,N/A,,Scattered Clouds,230,2013-07-11 00:15:00
8:35 PM,80.6,71.6,74,29.87,10.0,SW,4.6,-,N/A,,Clear,230,2013-07-11 00:35:00
8:55 PM,80.6,71.6,74,29.87,10.0,Calm,Calm,-,N/A,,Mostly Cloudy,0,2013-07-11 00:55:00
9:15 PM,80.6,71.6,74,29.88,10.0,Calm,Calm,-,N/A,,Scattered Clouds,0,2013-07-11 01:15:00
9:35 PM,80.6,71.6,74,29.88,10.0,SW,8.1,-,N/A,,Mostly Cloudy,230,2013-07-11 01:35:00
9:55 PM,80.6,71.6,74,29.88,10.0,Calm,Calm,-,N/A,,Scattered Clouds,0,2013-07-11 01:55:00
10:15 PM,80.6,71.6,74,29.87,10.0,SW,3.5,-,N/A,,Clear,220,2013-07-11 02:15:00
10:35 PM,78.8,71.6,78,29.87,10.0,Calm,Calm,-,N/A,,Clear,0,2013-07-11 02:35:00
10:55 PM,78.8,71.6,78,29.86,10.0,Calm,Calm,-,N/A,,Clear,0,2013-07-11 02:55:00
11:15 PM,78.8,73.4,83,29.85,10.0,SW,6.9,-,N/A,,Clear,220,2013-07-11 03:15:00
11:35 PM,78.8,73.4,83,29.85,10.0,Calm,Calm,-,N/A,,Clear,0,2013-07-11 03:35:00
11:55 PM,78.8,73.4,83,29.84,10.0,Calm,Calm,-,N/A,,Clear,0,2013-07-11 03:55:00